• In Netherlands
  • List of Countries
  • For 7 days
  • Water Temperature
  • Satellite Maps
  • Weather Map
  • Weather Widgets
  • user-avatar
    Login

    Hourly Weather Galata

    Today, 27 July, Thursday

    Time Temperature Precipitation Wind Pressure Humidity
    00:00 +23°C° 0 mm 1 mps 746 mmHg 93%
    01:00 +23°C° 0 mm 1 mps 746 mmHg 93%
    02:00 +22°C° 0 mm 1 mps 746 mmHg 91%
    03:00 +21°C° 0 mm 2 mps 746 mmHg 91%
    04:00 +21°C° 0 mm 2 mps 746 mmHg 92%
    05:00 +20°C° 0 mm 3 mps 746 mmHg 92%
    06:00 +21°C° 0 mm 3 mps 747 mmHg 86%
    07:00 +23°C° 0 mm 4 mps 747 mmHg 81%
    08:00 +23°C° 0 mm 5 mps 747 mmHg 67%
    09:00 +26°C° 0 mm 5 mps 747 mmHg 63%
    10:00 +28°C° 0 mm 5 mps 747 mmHg 58%
    11:00 +29°C° 0 mm 4 mps 747 mmHg 54%
    12:00 +29°C° 0.1 mm 4 mps 747 mmHg 54%
    13:00 +29°C° 0.1 mm 4 mps 747 mmHg 53%
    14:00 +29°C° 0 mm 4 mps 747 mmHg 53%
    15:00 +27°C° 0.6 mm 4 mps 747 mmHg 58%
    16:00 +26°C° 0.6 mm 4 mps 747 mmHg 64%
    17:00 +25°C° 0.6 mm 4 mps 747 mmHg 69%
    18:00 +23°C° 0.5 mm 5 mps 747 mmHg 74%
    19:00 +22°C° 0.5 mm 6 mps 747 mmHg 79%
    20:00 +20°C° 0.5 mm 6 mps 747 mmHg 83%
    21:00 +20°C° 0.3 mm 6 mps 747 mmHg 83%
    22:00 +19°C° 0.3 mm 5 mps 747 mmHg 82%
    23:00 +19°C° 0.3 mm 5 mps 747 mmHg 81%

    Tomorrow, 28 July, Friday

    Time Temperature Precipitation Wind Pressure Humidity
    00:00 +19°C° 0.4 mm 5 mps 747 mmHg 80%
    01:00 +19°C° 0.4 mm 5 mps 747 mmHg 79%
    02:00 +19°C° 0.4 mm 6 mps 747 mmHg 78%
    03:00 +19°C° 0.4 mm 6 mps 747 mmHg 79%
    04:00 +18°C° 0.4 mm 7 mps 747 mmHg 80%
    05:00 +18°C° 0.4 mm 7 mps 748 mmHg 80%
    06:00 +18°C° 0.9 mm 8 mps 748 mmHg 80%
    07:00 +18°C° 0.9 mm 8 mps 748 mmHg 80%
    08:00 +18°C° 0.9 mm 8 mps 748 mmHg 80%
    09:00 +20°C° 0.6 mm 8 mps 749 mmHg 77%
    10:00 +21°C° 0.6 mm 8 mps 749 mmHg 74%
    11:00 +23°C° 0.6 mm 8 mps 749 mmHg 70%
    12:00 +24°C° 0.2 mm 8 mps 749 mmHg 67%
    13:00 +26°C° 0.2 mm 7 mps 749 mmHg 63%
    14:00 +27°C° 0.2 mm 7 mps 749 mmHg 59%
    15:00 +27°C° 0.2 mm 6 mps 749 mmHg 56%
    16:00 +28°C° 0.2 mm 5 mps 750 mmHg 53%
    17:00 +29°C° 0.2 mm 5 mps 750 mmHg 49%
    18:00 +27°C° 0 mm 4 mps 750 mmHg 52%
    19:00 +26°C° 0 mm 4 mps 750 mmHg 56%
    20:00 +23°C° 0 mm 4 mps 751 mmHg 59%
    21:00 +23°C° 0 mm 4 mps 751 mmHg 59%
    22:00 +22°C° 0 mm 4 mps 751 mmHg 60%
    23:00 +21°C° 0 mm 5 mps 752 mmHg 60%

    Day after tomorrow, 29 July, Saturday

    Time Temperature Precipitation Wind Pressure Humidity
    00:00 +21°C° 0 mm 5 mps 752 mmHg 61%
    01:00 +21°C° 0 mm 5 mps 752 mmHg 61%
    02:00 +20°C° 0 mm 5 mps 753 mmHg 61%
    03:00 +20°C° 0 mm 4 mps 753 mmHg 63%
    04:00 +20°C° 0 mm 4 mps 753 mmHg 65%
    05:00 +19°C° 0 mm 4 mps 754 mmHg 67%
    06:00 +21°C° 0 mm 4 mps 754 mmHg 63%
    07:00 +23°C° 0 mm 4 mps 754 mmHg 59%
    08:00 +26°C° 0 mm 4 mps 755 mmHg 55%
    09:00 +27°C° 0 mm 4 mps 755 mmHg 50%
    10:00 +29°C° 0 mm 3 mps 756 mmHg 45%
    11:00 +31°C° 0 mm 3 mps 756 mmHg 40%
    12:00 +31°C° 0 mm 3 mps 756 mmHg 39%
    13:00 +33°C° 0 mm 3 mps 756 mmHg 37%
    14:00 +34°C° 0 mm 4 mps 756 mmHg 36%
    15:00 +33°C° 0 mm 4 mps 756 mmHg 38%
    16:00 +33°C° 0 mm 4 mps 756 mmHg 39%
    17:00 +32°C° 0 mm 4 mps 755 mmHg 41%
    18:00 +29°C° 0 mm 3 mps 756 mmHg 48%
    19:00 +27°C° 0 mm 3 mps 756 mmHg 55%
    20:00 +25°C° 0 mm 3 mps 756 mmHg 62%
    21:00 +25°C° 0 mm 3 mps 757 mmHg 65%
    22:00 +24°C° 0 mm 2 mps 757 mmHg 68%
    23:00 +23°C° 0 mm 2 mps 757 mmHg 71%

    30 July, Sunday

    Time Temperature Precipitation Wind Pressure Humidity
    00:00 +23°C° 0 mm 2 mps 758 mmHg 72%
    01:00 +23°C° 0 mm 2 mps 758 mmHg 73%
    02:00 +22°C° 0 mm 1 mps 758 mmHg 74%
    03:00 +22°C° 0 mm 1 mps 758 mmHg 74%
    04:00 +22°C° 0 mm 1 mps 758 mmHg 74%
    05:00 +20°C° 0 mm 0 mps 758 mmHg 73%
    06:00 +24°C° 0 mm 1 mps 758 mmHg 67%
    07:00 +26°C° 0 mm 1 mps 759 mmHg 61%
    08:00 +28°C° 0 mm 2 mps 759 mmHg 55%
    09:00 +29°C° 0 mm 2 mps 759 mmHg 51%
    10:00 +30°C° 0 mm 3 mps 759 mmHg 47%
    11:00 +33°C° 0 mm 3 mps 759 mmHg 43%
    12:00 +33°C° 0 mm 3 mps 759 mmHg 42%
    13:00 +33°C° 0 mm 4 mps 758 mmHg 42%
    14:00 +34°C° 0 mm 4 mps 758 mmHg 42%
    15:00 +33°C° 0 mm 4 mps 758 mmHg 45%
    16:00 +32°C° 0 mm 4 mps 758 mmHg 49%
    17:00 +30°C° 0 mm 5 mps 758 mmHg 52%
    18:00 +28°C° 0 mm 4 mps 758 mmHg 60%
    19:00 +26°C° 0 mm 4 mps 758 mmHg 68%
    20:00 +24°C° 0 mm 3 mps 758 mmHg 75%
    21:00 +24°C° 0 mm 3 mps 758 mmHg 79%
    22:00 +23°C° 0 mm 2 mps 758 mmHg 83%
    23:00 +21°C° 0 mm 2 mps 759 mmHg 87%

    31 July, Monday

    Time Temperature Precipitation Wind Pressure Humidity
    00:00 +21°C° 0 mm 2 mps 758 mmHg 86%
    01:00 +21°C° 0 mm 2 mps 758 mmHg 86%
    02:00 +20°C° 0 mm 2 mps 758 mmHg 86%
    03:00 +20°C° 0 mm 2 mps 758 mmHg 84%
    04:00 +20°C° 0 mm 2 mps 758 mmHg 82%
    05:00 +20°C° 0 mm 3 mps 758 mmHg 80%
    06:00 +22°C° 0 mm 3 mps 758 mmHg 71%
    07:00 +25°C° 0 mm 4 mps 758 mmHg 63%
    08:00 +27°C° 0 mm 5 mps 759 mmHg 54%
    09:00 +28°C° 0 mm 5 mps 759 mmHg 50%
    10:00 +29°C° 0 mm 5 mps 759 mmHg 45%
    11:00 +32°C° 0 mm 6 mps 759 mmHg 41%
    12:00 +32°C° 0 mm 6 mps 759 mmHg 40%
    13:00 +33°C° 0 mm 6 mps 758 mmHg 39%
    14:00 +33°C° 0 mm 6 mps 758 mmHg 39%
    15:00 +32°C° 0 mm 6 mps 758 mmHg 41%
    16:00 +32°C° 0 mm 6 mps 758 mmHg 43%
    17:00 +30°C° 0 mm 6 mps 758 mmHg 45%
    18:00 +28°C° 0 mm 6 mps 758 mmHg 54%
    19:00 +26°C° 0 mm 5 mps 758 mmHg 62%
    20:00 +23°C° 0 mm 5 mps 758 mmHg 70%
    21:00 +22°C° 0 mm 4 mps 759 mmHg 74%
    22:00 +21°C° 0 mm 4 mps 759 mmHg 78%
    23:00 +21°C° 0 mm 4 mps 759 mmHg 82%

    1 August, Tuesday

    Time Temperature Precipitation Wind Pressure Humidity
    00:00 +20°C° 0 mm 4 mps 759 mmHg 83%
    01:00 +20°C° 0 mm 4 mps 759 mmHg 85%
    02:00 +20°C° 0 mm 4 mps 758 mmHg 86%
    03:00 +20°C° 0 mm 4 mps 758 mmHg 85%
    04:00 +20°C° 0 mm 4 mps 758 mmHg 84%
    05:00 +19°C° 0 mm 5 mps 758 mmHg 84%
    06:00 +22°C° 0 mm 5 mps 759 mmHg 75%
    07:00 +24°C° 0 mm 6 mps 759 mmHg 67%
    08:00 +27°C° 0 mm 6 mps 759 mmHg 59%
    09:00 +29°C° 0 mm 7 mps 759 mmHg 53%
    10:00 +30°C° 0 mm 7 mps 759 mmHg 48%
    11:00 +33°C° 0 mm 7 mps 759 mmHg 42%
    12:00 +33°C° 0 mm 8 mps 759 mmHg 41%
    13:00 +33°C° 0 mm 8 mps 759 mmHg 40%
    14:00 +33°C° 0 mm 8 mps 758 mmHg 38%
    15:00 +33°C° 0 mm 7 mps 758 mmHg 40%
    16:00 +32°C° 0 mm 7 mps 758 mmHg 42%
    17:00 +30°C° 0 mm 7 mps 758 mmHg 43%
    18:00 +28°C° 0 mm 6 mps 758 mmHg 52%
    19:00 +26°C° 0 mm 5 mps 758 mmHg 60%
    20:00 +23°C° 0 mm 5 mps 758 mmHg 68%
    21:00 +22°C° 0 mm 4 mps 758 mmHg 72%
    22:00 +21°C° 0 mm 4 mps 758 mmHg 76%
    23:00 +21°C° 0 mm 4 mps 758 mmHg 79%
    Show more